Regional Weather Roundup
Issued by NWS Charleston, SC

Current Version | Previous Version | Graphics & Text | Print | Product List | Glossary On
Versions: 1 2 3 4 5 6 7 8 9 10 11 12 13 14 15 16 17 18 19 20 21 22 23 24 25 26 27 28 29 30 31 32 33 34 35 36 37 38 39 40 41 42 43 44 45 46 47 48 49 50
000
ASUS42 KCHS 270712
RWRCHS

REGIONAL WEATHER ROUNDUP
NATIONAL WEATHER SERVICE CHARLESTON SC
300 AM EDT MON APR 27 2015

NOTE: "FAIR" INDICATES FEW OR NO CLOUDS BELOW 12,000 FEET WITH NO
SIGNIFICANT WEATHER AND/OR OBSTRUCTIONS TO VISIBILITY.

NOT ALL STATIONS ARE QUALITY CONTROLLED BY THE NATIONAL
WEATHER SERVICE. USE DATA WITH CAUTION...ESPECIALLY
DEWPOINT OBSERVATIONS.

SCZ027-030-031-034>040-042>050-270800-
...SOUTHEAST SOUTH CAROLINA...

CITY           SKY/WX    TMP DP  RH WIND       PRES   REMARKS
N CHARLESTON   CLOUDY    55  52  89 NE9       29.74S
WATERFRONT PRK   N/A     57 N/A N/A N14         N/A
MOUNT PLEASANT CLOUDY    55  52  88 MISG      29.74S
PINOPOLIS      NOT AVBL
MONCKS CORNER  FAIR      54  50  87 NE6       29.75F
SUMMERVILLE    CLOUDY    54  54 100 NE3       29.76F
BEAUFORT MCAS  CLOUDY    62  56  80 NE9       29.72F
BEAUFORT ARPT  NOT AVBL
HILTON HEAD IS CLOUDY    64  61  88 N9        29.73S
WALTERBORO     CLOUDY    54  50  87 NE9       29.77R
ALLENDALE      PTSUNNY   55  52  88 VRB7      29.75S

...SOUTHERN MIDLANDS AND PEE DEE...

CITY           SKY/WX    TMP DP  RH WIND       PRES   REMARKS
GEORGETOWN     NOT AVBL
KINGSTREE      NOT AVBL
ORANGEBURG     CLOUDY    54  48  80 NE6       29.77S
BARNWELL       PTSUNNY   55  52  88 NE8       29.77F
AIKEN          PTSUNNY   52  45  76 NE6       29.80F
MANNING        PTSUNNY   52  36  54 N3        29.76F
COLUMBIA       CLOUDY    55  47  74 N5        29.76F
SUMTER         CLOUDY    52  49  88 NE5       29.75F
FLORENCE       CLOUDY    53  49  86 N6        29.76F
MYRTLE BEACH   MOCLDY    54  48  82 N7        29.75F
N MYRTLE BEACH MOCLDY    52  49  89 N5        29.74F

$$

GAZ063-065-086>088-099>101-113>116-118-119-134>141-150-270800-
...SOUTHEAST GEORGIA...

CITY           SKY/WX    TMP DP  RH WIND       PRES   REMARKS
SAVANNAH ARPT  CLOUDY    64  58  80 N8        29.71F
HUNTER AAF     CLOUDY    66  61  84 NE8       29.68F
FORT STEWART   MOCLDY    67  61  81 NE8       29.68S
STATESBORO       N/A     60  56  87 NE6       29.74S
SYLVANIA       CLOUDY    59  56  91 NE7       29.75S
CLAXTON        PTSUNNY   63  59  88 NE10      29.73R

...CSRA...CENTRAL AND FAR SOUTHEAST GEORGIA...

CITY           SKY/WX    TMP DP  RH WIND       PRES   REMARKS
THOMSON          N/A     56  53  89 CALM      29.82S
AUGUSTA-BUSH   MOCLDY    56  49  77 NE6       29.77F
AUGUSTA-DANIEL PTCLDY    57  48  72 NE7       29.78S
SWAINSBORO     NOT AVBL
VIDALIA        CLOUDY    63  61  94 NE10      29.72S
EASTMAN        FAIR      68  59  73 N6        29.75S
HAZLEHURST     FAIR      71  61  70 N6        29.69F
ALMA           MOCLDY    72  63  73 NW6       29.68F
WAYCROSS       MOCLDY    75  71  86 W6        29.68S
JESUP          FAIR      73  66  78 N6        29.69R
BAXLEY         FAIR      73  61  64 N6        29.68S
BRUNSWICK      MOCLDY    73  66  78 W5        29.67F
SAINT SIMONS   CLOUDY    73  68  84 W6        29.66F

$$

SCZ027-028-034-036>038-045-046-048>050-GAZ119-141-270800-
...LAKE AND SUPPLEMENTAL COASTAL OBSERVATIONS...

STATION/POSITION TIME  TEMP    WIND        PRES    WAVE   SWELL
                       AIR SEA DIR/SP/G            HT/PER HT/PER/DIR
                 (UTC) (F)     (DEG/KT/KT) (MB)    (FT/S) (FT/S/D)
UPR LAKE MARION  NOT AVBL
WINYAH BAY       NOT AVBL
LAKE MURRAY      0600   54      30/  2/  4 1008.1F
ACE BASIN NERRS  NOT AVBL
FORT PULASKI     0600   67 70   50/ 16/ 20 1006.5R
SAPELO ISLAND    0600   74     240/  9     1005.0S

$$

ANZ835-935-AMZ111-154-330-350-352-354-370-450-454-472-270800-
...C-MAN AND BUOY OBSERVATIONS...

STATION/POSITION TIME  TEMP    WIND        PRES    WAVE   SWELL
                       AIR SEA DIR/SP/G            HT/PER HT/PER/DIR
                 (UTC) (F)     (DEG/KT/KT) (MB)    (FT/S) (FT/S/D)
BUOY 41004       0650   64 71   20/ 17/ 19 1005.0F   6/ 6
BUOY 41008       0650   69 71   50/ 17/ 21 1004.9R   1/ 5
FOLLY BEACH CMAN 0600   59      20/ 11/ 14 1006.7F
CAPERS NEARSHORE 0608   59      30/ 16/ 21 1006.9F
FRIPP NEARSHORE  0600   65      50/ 16/ 19 1005.9R


STATION/POSITION TIME  TEMP    WIND        PRES    WAVE   SWELL
                       AIR SEA DIR/SP/G            HT/PER HT/PER/DIR
                 (UTC) (F)     (DEG/KT/KT) (MB)    (FT/S) (FT/S/D)
5E ST. MARYS GA  0621      71                N/A     1/ 4
FRYING PAN BUOY  0650   61 71   20/ 14/ 17 1006.0F   4/ 5   2/140/ 7
BUOY 41025       0650   60 75   10/ 19/ 23 1004.9F   7/10   3/ 60/10
CAPE LOOKOUT NC  0600   54     360/  9/ 12 1006.1F
BUOY 41002       0650   67 70   20/  8/ 10 1003.9F   7/ 8   7/240/ 8
BUOY 41010       0620   80 79  250/ 17/ 19 1004.7F
ST AUGUSTINE FL  0700   75 67  240/  6/  7 1006.2R


$$


USA.gov is the U.S. government's official web portal to all federal, state and local government web resources and services.